• In Germany
  • List of Countries
  • For 7 days
  • Water Temperature
  • Satellite Maps
  • Weather Map
  • Weather Widgets
  • user-avatar
    Login

    Hourly Weather Thessaloniki

    Today, 22 October, Monday

    Time Temperature Precipitation Wind Pressure Humidity
    00:00 +16°C° 0.2 mm 2 mps 760 mmHg 71%
    01:00 +16°C° 0.2 mm 2 mps 760 mmHg 72%
    02:00 +16°C° 0.2 mm 2 mps 760 mmHg 73%
    03:00 +16°C° 0.1 mm 2 mps 760 mmHg 74%
    04:00 +16°C° 0.1 mm 2 mps 760 mmHg 75%
    05:00 +15°C° 0.1 mm 2 mps 760 mmHg 77%
    06:00 +16°C° 0.1 mm 2 mps 761 mmHg 76%
    07:00 +16°C° 0.1 mm 2 mps 761 mmHg 75%
    08:00 +16°C° 0.1 mm 2 mps 761 mmHg 75%
    09:00 +17°C° 0.2 mm 2 mps 761 mmHg 70%
    10:00 +18°C° 0.2 mm 2 mps 761 mmHg 66%
    11:00 +19°C° 0.2 mm 2 mps 761 mmHg 62%
    12:00 +20°C° 0.1 mm 2 mps 760 mmHg 60%
    13:00 +20°C° 0.1 mm 3 mps 760 mmHg 58%
    14:00 +20°C° 0.1 mm 3 mps 759 mmHg 56%
    15:00 +20°C° 0.1 mm 3 mps 759 mmHg 57%
    16:00 +20°C° 0.1 mm 3 mps 759 mmHg 59%
    17:00 +19°C° 0.1 mm 3 mps 759 mmHg 60%
    18:00 +19°C° 0.1 mm 2 mps 759 mmHg 63%
    19:00 +18°C° 0.1 mm 2 mps 759 mmHg 66%
    20:00 +17°C° 0.1 mm 2 mps 760 mmHg 68%
    21:00 +17°C° 0.2 mm 2 mps 760 mmHg 69%
    22:00 +17°C° 0.2 mm 2 mps 760 mmHg 70%
    23:00 +17°C° 0.2 mm 3 mps 760 mmHg 72%

    Tomorrow, 23 October, Tuesday

    Time Temperature Precipitation Wind Pressure Humidity
    00:00 +16°C° 0.4 mm 3 mps 760 mmHg 73%
    01:00 +16°C° 0.4 mm 3 mps 760 mmHg 75%
    02:00 +16°C° 0.4 mm 2 mps 760 mmHg 77%
    03:00 +16°C° 0.3 mm 2 mps 760 mmHg 77%
    04:00 +16°C° 0.3 mm 2 mps 759 mmHg 78%
    05:00 +15°C° 0.3 mm 2 mps 759 mmHg 78%
    06:00 +16°C° 0 mm 2 mps 759 mmHg 77%
    07:00 +16°C° 0 mm 2 mps 760 mmHg 75%
    08:00 +16°C° 0 mm 2 mps 760 mmHg 74%
    09:00 +17°C° 0 mm 2 mps 760 mmHg 67%
    10:00 +18°C° 0 mm 2 mps 760 mmHg 61%
    11:00 +19°C° 0 mm 2 mps 760 mmHg 54%
    12:00 +20°C° 0 mm 2 mps 759 mmHg 51%
    13:00 +22°C° 0 mm 1 mps 759 mmHg 47%
    14:00 +23°C° 0 mm 1 mps 758 mmHg 44%
    15:00 +22°C° 0 mm 1 mps 758 mmHg 46%
    16:00 +22°C° 0 mm 1 mps 758 mmHg 47%
    17:00 +21°C° 0 mm 1 mps 758 mmHg 49%
    18:00 +20°C° 0 mm 1 mps 758 mmHg 52%
    19:00 +19°C° 0 mm 1 mps 758 mmHg 56%
    20:00 +18°C° 0 mm 1 mps 758 mmHg 59%
    21:00 +18°C° 0 mm 1 mps 758 mmHg 60%
    22:00 +16°C° 0 mm 1 mps 758 mmHg 62%
    23:00 +16°C° 0 mm 1 mps 758 mmHg 63%

    Day after tomorrow, 24 October, Wednesday

    Time Temperature Precipitation Wind Pressure Humidity
    00:00 +16°C° 0 mm 1 mps 758 mmHg 64%
    01:00 +15°C° 0 mm 2 mps 758 mmHg 65%
    02:00 +15°C° 0 mm 2 mps 757 mmHg 66%
    03:00 +15°C° 0 mm 2 mps 757 mmHg 66%
    04:00 +14°C° 0 mm 2 mps 756 mmHg 67%
    05:00 +14°C° 0 mm 2 mps 756 mmHg 67%
    06:00 +14°C° 0 mm 2 mps 756 mmHg 66%
    07:00 +13°C° 0 mm 3 mps 756 mmHg 65%
    08:00 +13°C° 0 mm 3 mps 755 mmHg 64%
    09:00 +16°C° 0 mm 3 mps 755 mmHg 56%
    10:00 +18°C° 0 mm 3 mps 754 mmHg 49%
    11:00 +20°C° 0 mm 4 mps 754 mmHg 41%
    12:00 +21°C° 0 mm 4 mps 753 mmHg 38%
    13:00 +22°C° 0 mm 4 mps 752 mmHg 35%
    14:00 +25°C° 0 mm 5 mps 751 mmHg 32%
    15:00 +23°C° 0 mm 4 mps 751 mmHg 34%
    16:00 +23°C° 0 mm 4 mps 751 mmHg 35%
    17:00 +22°C° 0 mm 4 mps 750 mmHg 36%
    18:00 +21°C° 0 mm 3 mps 751 mmHg 39%
    19:00 +20°C° 0 mm 3 mps 751 mmHg 42%
    20:00 +18°C° 0 mm 2 mps 752 mmHg 44%
    21:00 +18°C° 0 mm 4 mps 753 mmHg 46%
    22:00 +16°C° 0 mm 6 mps 753 mmHg 47%
    23:00 +15°C° 0 mm 8 mps 754 mmHg 49%

    25 October, Thursday

    Time Temperature Precipitation Wind Pressure Humidity
    00:00 +13°C° 0 mm 9 mps 755 mmHg 48%
    01:00 +12°C° 0 mm 9 mps 755 mmHg 47%
    02:00 +11°C° 0 mm 9 mps 756 mmHg 46%
    03:00 +10°C° 0 mm 9 mps 756 mmHg 47%
    04:00 +9°C° 0 mm 8 mps 756 mmHg 47%
    05:00 +9°C° 0 mm 8 mps 757 mmHg 48%
    06:00 +7°C° 0 mm 8 mps 757 mmHg 47%
    07:00 +7°C° 0 mm 8 mps 758 mmHg 47%
    08:00 +8°C° 0 mm 7 mps 759 mmHg 46%
    09:00 +9°C° 0 mm 7 mps 759 mmHg 41%
    10:00 +10°C° 0 mm 7 mps 759 mmHg 36%
    11:00 +12°C° 0 mm 7 mps 759 mmHg 30%
    12:00 +12°C° 0 mm 7 mps 759 mmHg 28%
    13:00 +14°C° 0 mm 7 mps 759 mmHg 26%
    14:00 +15°C° 0 mm 7 mps 758 mmHg 24%
    15:00 +15°C° 0 mm 6 mps 758 mmHg 24%
    16:00 +15°C° 0 mm 6 mps 759 mmHg 25%
    17:00 +14°C° 0 mm 5 mps 759 mmHg 26%
    18:00 +13°C° 0 mm 5 mps 759 mmHg 28%
    19:00 +12°C° 0 mm 4 mps 760 mmHg 30%
    20:00 +11°C° 0 mm 4 mps 761 mmHg 32%
    21:00 +11°C° 0 mm 3 mps 761 mmHg 33%
    22:00 +11°C° 0 mm 3 mps 761 mmHg 34%
    23:00 +10°C° 0 mm 2 mps 761 mmHg 35%

    26 October, Friday

    Time Temperature Precipitation Wind Pressure Humidity
    00:00 +10°C° 0 mm 2 mps 761 mmHg 36%
    01:00 +10°C° 0 mm 2 mps 761 mmHg 37%
    02:00 +9°C° 0 mm 2 mps 761 mmHg 38%
    03:00 +9°C° 0 mm 2 mps 761 mmHg 39%
    04:00 +9°C° 0 mm 2 mps 761 mmHg 39%
    05:00 +10°C° 0 mm 1 mps 761 mmHg 40%
    06:00 +10°C° 0 mm 1 mps 761 mmHg 41%
    07:00 +11°C° 0 mm 1 mps 761 mmHg 41%
    08:00 +11°C° 0 mm 1 mps 761 mmHg 41%
    09:00 +13°C° 0 mm 1 mps 761 mmHg 38%
    10:00 +15°C° 0 mm 1 mps 761 mmHg 35%
    11:00 +18°C° 0 mm 1 mps 761 mmHg 32%
    12:00 +19°C° 0 mm 1 mps 760 mmHg 31%
    13:00 +19°C° 0 mm 2 mps 760 mmHg 30%
    14:00 +20°C° 0 mm 2 mps 760 mmHg 29%
    15:00 +20°C° 0 mm 2 mps 760 mmHg 31%
    16:00 +19°C° 0 mm 2 mps 760 mmHg 34%
    17:00 +18°C° 0 mm 2 mps 760 mmHg 37%
    18:00 +17°C° 0 mm 2 mps 760 mmHg 40%
    19:00 +16°C° 0 mm 2 mps 760 mmHg 44%
    20:00 +15°C° 0 mm 2 mps 761 mmHg 47%
    21:00 +15°C° 0 mm 2 mps 761 mmHg 49%
    22:00 +15°C° 0 mm 2 mps 761 mmHg 51%
    23:00 +14°C° 0 mm 2 mps 761 mmHg 53%

    27 October, Saturday

    Time Temperature Precipitation Wind Pressure Humidity
    00:00 +14°C° 0 mm 1 mps 761 mmHg 55%
    01:00 +14°C° 0 mm 1 mps 761 mmHg 57%
    02:00 +14°C° 0 mm 1 mps 761 mmHg 58%
    03:00 +13°C° 0 mm 1 mps 761 mmHg 60%
    04:00 +13°C° 0 mm 1 mps 761 mmHg 61%
    05:00 +13°C° 0 mm 1 mps 761 mmHg 63%
    06:00 +13°C° 0 mm 1 mps 761 mmHg 62%
    07:00 +14°C° 0 mm 1 mps 761 mmHg 62%
    08:00 +14°C° 0 mm 1 mps 761 mmHg 61%
    09:00 +16°C° 0 mm 1 mps 761 mmHg 57%
    10:00 +18°C° 0 mm 2 mps 760 mmHg 52%
    11:00 +20°C° 0 mm 2 mps 760 mmHg 48%
    12:00 +21°C° 0 mm 2 mps 760 mmHg 46%
    13:00 +23°C° 0 mm 2 mps 759 mmHg 44%
    14:00 +24°C° 0 mm 3 mps 758 mmHg 43%
    15:00 +22°C° 0 mm 3 mps 758 mmHg 47%
    16:00 +21°C° 0 mm 3 mps 758 mmHg 52%
    17:00 +20°C° 0 mm 3 mps 758 mmHg 57%
    18:00 +19°C° 0 mm 3 mps 758 mmHg 64%
    19:00 +18°C° 0 mm 2 mps 759 mmHg 70%
    20:00 +17°C° 0 mm 2 mps 759 mmHg 77%
    21:00 +17°C° 0 mm 2 mps 759 mmHg 79%
    22:00 +16°C° 0 mm 2 mps 759 mmHg 81%
    23:00 +16°C° 0 mm 2 mps 759 mmHg 83%

    28 October, Sunday

    Time Temperature Precipitation Wind Pressure Humidity
    00:00 +16°C° 0 mm 2 mps 759 mmHg 85%
    01:00 +16°C° 0 mm 2 mps 759 mmHg 86%
    02:00 +15°C° 0 mm 2 mps 759 mmHg 87%
    03:00 +15°C° 0 mm 1 mps 759 mmHg 88%
    04:00 +15°C° 0 mm 1 mps 759 mmHg 89%
    05:00 +15°C° 0 mm 1 mps 759 mmHg 90%
    06:00 +15°C° 0 mm 1 mps 759 mmHg 88%
    07:00 +16°C° 0 mm 1 mps 759 mmHg 87%
    08:00 +16°C° 0 mm 1 mps 759 mmHg 85%
    09:00 +18°C° 0 mm 2 mps 759 mmHg 78%
    10:00 +19°C° 0 mm 2 mps 759 mmHg 71%
    11:00 +21°C° 0 mm 2 mps 759 mmHg 64%
    12:00 +22°C° 0 mm 3 mps 759 mmHg 59%
    13:00 +24°C° 0 mm 3 mps 758 mmHg 55%
    14:00 +25°C° 0 mm 3 mps 758 mmHg 50%
    15:00 +24°C° 0 mm 3 mps 758 mmHg 54%
    16:00 +22°C° 0 mm 3 mps 758 mmHg 58%
    17:00 +21°C° 0 mm 3 mps 758 mmHg 61%
    18:00 +20°C° 0 mm 3 mps 758 mmHg 67%
    19:00 +19°C° 0 mm 3 mps 758 mmHg 73%
    20:00 +18°C° 0 mm 2 mps 759 mmHg 80%
    21:00 +18°C° 0 mm 2 mps 759 mmHg 82%
    22:00 +17°C° 0 mm 2 mps 759 mmHg 84%
    23:00 +17°C° 0 mm 2 mps 759 mmHg 87%
    Show more